Visibility
15.0 15.0 15.0 15.0 15.0 15.0 15.0 15.0 15.0 15.0 15.0 15.0 15.0 15.0 15.0 15.0 15.0 15.0 15.0 15.0 15.0 15.0 15.0 15.0 15.0 15.0 15.0 15.0 15.0 12.3 12.2 14.0 13.0 5.2 15.0 15.0 9.0 0.4 11.5 14.4 15.0 12.5 15.0
15.0 15.0 15.0 15.0 15.0 15.0 15.0 15.0 15.0 15.0 15.0 15.0 15.0 15.0 15.0 15.0 15.0 15.0 15.0 15.0 15.0 15.0 14.4 15.0 4.8 15.0 15.0 15.0 15.0 15.0 15.0 15.0 15.0 14.6 0.8 0.3 0.6 1.3 0.6 1.3 11.7 3.8 15.0
15.0 15.0 15.0 15.0 15.0 15.0 15.0 15.0 15.0 15.0 15.0 15.0 15.0 15.0 15.0 15.0 15.0 15.0 15.0 15.0 15.0 15.0 15.0 15.0 11.2 14.4 15.0 12.8 9.2 15.0 15.0 15.0 15.0 15.0 15.0 15.0 0.4 0.1 0.1 4.3 0.2 4.0 5.5
15.0 15.0 15.0 15.0 15.0 15.0 15.0 15.0 15.0 15.0 15.0 15.0 15.0 15.0 15.0 15.0 15.0 15.0 15.0 15.0 15.0 15.0 15.0 15.0 11.6 13.8 5.2 5.4 15.0 15.0 15.0 15.0 15.0 15.0 7.9 12.4 9.9 0.2 13.5 0.1 0.1 2.0 11.1
15.0 15.0 15.0 15.0 15.0 15.0 15.0 15.0 15.0 15.0 15.0 15.0 15.0 15.0 15.0 15.0 15.0 15.0 15.0 15.0 15.0 15.0 15.0 15.0 15.0 12.0 15.0 12.8 15.0 15.0 15.0 15.0 15.0 11.3 0.1 0.1 0.0 0.0 0.0 0.9 0.3 0.2 3.5
14.0 2.1 14.9 15.0 15.0 15.0 15.0 15.0 15.0 15.0 15.0 15.0 15.0 15.0 15.0 15.0 15.0 15.0 15.0 15.0 15.0 15.0 15.0 15.0 15.0 15.0 15.0 14.8 15.0 15.0 15.0 15.0 15.0 15.0 15.0 6.6 0.3 0.9 1.5 0.6 0.2 0.2 0.2
6.9 3.7 4.5 15.0 15.0 15.0 15.0 15.0 15.0 10.9 15.0 15.0 15.0 15.0 15.0 15.0 15.0 15.0 15.0 15.0 15.0 15.0 15.0 15.0 15.0 15.0 15.0 7.8 2.0 0.3 1.3 15.0 15.0 13.8 15.0 15.0 15.0 15.0 15.0 3.3 14.2 15.0 15.0
15.0 15.0 15.0 15.0 15.0 15.0 15.0 15.0 4.7 15.0 15.0 15.0 15.0 15.0 15.0 15.0 15.0 15.0 15.0 15.0 15.0 15.0 15.0 15.0 15.0 15.0 15.0 15.0 4.7 15.0 15.0 15.0 15.0 15.0 13.6 14.2 15.0 15.0 15.0 15.0 15.0 8.5 15.0
5.5 15.0 15.0 15.0 15.0 15.0 15.0 15.0 15.0 15.0 15.0 15.0 15.0 15.0 15.0 15.0 1.3 15.0 12.7 15.0 15.0 15.0 15.0 15.0 15.0 15.0 15.0 15.0 8.6 15.0 15.0 15.0 0.1 13.3 15.0 15.0 15.0 15.0 15.0 15.0 0.2 3.1 3.4
1.8 15.0 15.0 15.0 15.0 15.0 15.0 15.0 3.6 15.0 15.0 15.0 3.2 9.8 6.2 15.0 0.1 9.4 0.1 15.0 15.0 15.0 15.0 15.0 15.0 15.0 15.0 0.2 14.4 12.6 15.0 15.0 15.0 15.0 15.0 1.4 10.4 2.4 0.4 15.0 15.0 12.7 15.0
15.0 15.0 15.0 15.0 15.0 15.0 15.0 8.9 15.0 15.0 14.1 15.0 14.0 15.0 9.8 15.0 10.5 0.0 15.0 15.0 15.0 15.0 15.0 15.0 15.0 1.7 0.0 0.0 5.2 3.8 8.1 15.0 5.4 15.0 15.0 15.0 15.0 15.0 15.0 15.0 15.0 15.0 15.0
15.0 15.0 15.0 15.0 15.0 15.0 15.0 15.0 15.0 15.0 15.0 15.0 15.0 15.0 11.0 15.0 0.6 0.1 0.5 15.0 15.0 15.0 15.0 15.0 4.1 0.1 0.0 0.0 0.1 1.2 0.0 5.7 8.3 15.0 15.0 15.0 15.0 15.0 15.0 15.0 15.0 15.0 15.0
15.0 15.0 15.0 15.0 15.0 15.0 15.0 15.0 15.0 15.0 13.8 15.0 15.0 15.0 15.0 15.0 14.5 0.1 0.0 15.0 2.1 15.0 15.0 2.2 2.2 0.3 0.0 0.0 0.1 0.0 0.0 10.7 13.8 15.0 6.3 15.0 15.0 15.0 14.0 9.8 12.3 15.0 15.0
15.0 15.0 15.0 15.0 3.9 15.0 15.0 15.0 15.0 15.0 15.0 15.0 15.0 15.0 15.0 15.0 15.0 5.3 0.0 0.1 0.1 0.1 0.1 1.3 15.0 15.0 12.6 9.4 2.2 2.5 15.0 15.0 15.0 15.0 15.0 5.9 6.7 15.0 3.6 15.0 15.0 15.0 13.2
15.0 15.0 15.0 15.0 15.0 15.0 15.0 1.4 0.1 10.4 8.6 15.0 15.0 15.0 15.0 15.0 0.5 0.0 0.0 0.0 0.2 0.2 9.9 10.6 15.0 15.0 15.0 15.0 15.0 15.0 15.0 15.0 15.0 15.0 15.0 15.0 15.0 15.0 15.0 15.0 15.0 15.0 15.0
15.0 15.0 9.0 15.0 15.0 15.0 15.0 10.8 0.3 0.1 0.1 0.0 0.0 0.0 3.0 0.0 0.0 0.0 0.0 0.0 0.0 0.0 10.6 15.0 15.0 15.0 15.0 15.0 15.0 15.0 15.0 15.0 15.0 15.0 15.0 15.0 15.0 15.0 15.0 15.0 15.0 15.0 15.0
15.0 15.0 15.0 0.3 15.0 15.0 7.4 0.1 0.1 0.0 0.1 0.2 0.1 0.1 0.0 0.0 0.0 0.0 0.0 0.1 0.1 0.1 4.1 14.7 15.0 15.0 15.0 15.0 15.0 15.0 2.4 15.0 15.0 15.0 15.0 15.0 15.0 15.0 4.0 15.0 15.0 11.8 0.7
15.0 2.5 13.6 15.0 15.0 15.0 15.0 4.6 15.0 15.0 0.1 0.0 0.0 0.0 0.0 0.0 0.0 0.0 0.0 0.0 0.0 0.1 3.7 2.3 0.8 7.9 15.0 15.0 0.3 0.1 0.1 0.2 15.0 15.0 15.0 15.0 15.0 15.0 15.0 15.0 15.0 15.0 15.0
15.0 15.0 15.0 15.0 15.0 7.5 15.0 15.0 15.0 15.0 13.2 7.7 0.7 0.1 0.1 0.1 0.1 0.0 0.1 2.1 1.5 0.2 0.3 0.3 4.8 1.7 1.0 4.1 11.8 15.0 15.0 15.0 15.0 15.0 15.0 15.0 15.0 15.0 15.0 15.0 9.7 7.6 15.0
15.0 15.0 13.6 15.0 14.5 15.0 15.0 15.0 15.0 15.0 15.0 15.0 8.7 0.2 0.2 11.0 2.3 1.3 0.1 0.4 0.3 0.2 1.5 1.7 5.0 7.9 4.1 15.0 15.0 15.0 15.0 11.9 15.0 15.0 15.0 15.0 15.0 15.0 15.0 15.0 15.0 15.0 15.0
15.0 15.0 15.0 15.0 15.0 15.0 15.0 15.0 15.0 15.0 15.0 15.0 11.5 0.1 0.0 0.2 0.1 0.6 0.1 0.1 0.1 0.1 0.4 3.4 10.0 4.6 15.0 15.0 15.0 15.0 15.0 15.0 15.0 15.0 15.0 15.0 15.0 15.0 15.0 15.0 15.0 15.0 15.0
15.0 15.0 15.0 15.0 15.0 15.0 15.0 9.7 15.0 15.0 15.0 0.8 0.1 0.1 0.0 15.0 0.3 0.1 0.1 0.1 0.1 0.2 1.8 2.6 3.6 3.0 5.7 11.2 15.0 15.0 15.0 15.0 15.0 15.0 15.0 15.0 15.0 15.0 15.0 15.0 15.0 15.0 15.0
15.0 15.0 15.0 15.0 15.0 4.5 11.1 15.0 14.9 15.0 14.9 0.6 0.2 0.2 5.0 0.3 0.2 0.1 0.1 0.3 0.2 0.4 4.5 4.8 5.1 5.3 8.6 15.0 15.0 15.0 15.0 15.0 15.0 15.0 15.0 15.0 15.0 15.0 15.0 15.0 15.0 15.0 15.0
15.0 15.0 15.0 15.0 13.6 15.0 15.0 15.0 15.0 0.1 0.4 0.6 15.0 15.0 1.7 14.0 0.9 0.5 1.9 12.2 3.6 4.7 6.0 14.1 13.8 15.0 15.0 15.0 15.0 15.0 15.0 15.0 15.0 15.0 15.0 15.0 15.0 11.8 15.0 15.0 15.0 15.0 15.0
15.0 15.0 15.0 15.0 15.0 15.0 15.0 15.0 15.0 15.0 15.0 8.5 15.0 14.0 7.0 15.0 13.9 12.3 15.0 10.8 10.5 15.0 15.0 15.0 15.0 15.0 15.0 15.0 15.0 15.0 15.0 15.0 15.0 15.0 15.0 15.0 15.0 15.0 15.0 15.0 15.0 15.0 15.0
15.0 15.0 15.0 15.0 15.0 15.0 15.0 15.0 15.0 15.0 11.5 15.0 15.0 14.0 15.0 13.0 8.8 12.9 15.0 15.0 15.0 15.0 15.0 15.0 15.0 15.0 15.0 15.0 15.0 15.0 15.0 15.0 15.0 15.0 15.0 15.0 15.0 15.0 15.0 15.0 15.0 15.0 15.0